Year,Month,Day,Hour,Minute,Value (Times are PST for temperature in C)
2016,09,22,00,00,9.70
2016,09,22,00,01,9.60
2016,09,22,00,02,9.60
2016,09,22,00,03,9.60
2016,09,22,00,04,9.60
2016,09,22,00,05,9.60
2016,09,22,00,06,9.60
2016,09,22,00,07,9.70
2016,09,22,00,08,9.70
2016,09,22,00,09,9.60
2016,09,22,00,10,9.60
2016,09,22,00,11,9.60
2016,09,22,00,12,9.70
2016,09,22,00,13,9.70
2016,09,22,00,14,9.70
2016,09,22,00,15,9.70
2016,09,22,00,16,9.70
2016,09,22,00,17,9.70
2016,09,22,00,18,9.70
2016,09,22,00,19,9.70
2016,09,22,00,20,9.60
2016,09,22,00,21,9.60
2016,09,22,00,22,9.60
2016,09,22,00,23,9.60
2016,09,22,00,24,9.60
2016,09,22,00,25,9.60
2016,09,22,00,26,9.60
2016,09,22,00,27,9.60
2016,09,22,00,28,9.60
2016,09,22,00,29,9.50
2016,09,22,00,30,9.50
2016,09,22,00,31,9.50
2016,09,22,00,32,9.40
2016,09,22,00,33,9.40
2016,09,22,00,34,9.40
2016,09,22,00,35,9.40
2016,09,22,00,36,9.40
2016,09,22,00,37,9.40
2016,09,22,00,38,9.40
2016,09,22,00,39,9.40
2016,09,22,00,40,9.40
2016,09,22,00,41,9.40
2016,09,22,00,42,9.40
2016,09,22,00,43,9.40
2016,09,22,00,44,9.40
2016,09,22,00,45,9.40
2016,09,22,00,46,9.30
2016,09,22,00,47,9.30
2016,09,22,00,48,9.30
2016,09,22,00,49,9.30
2016,09,22,00,50,9.20
2016,09,22,00,51,9.20
2016,09,22,00,52,9.20
2016,09,22,00,53,9.20
2016,09,22,00,54,9.20
2016,09,22,00,55,9.20
2016,09,22,00,56,9.20
2016,09,22,00,57,9.20
2016,09,22,00,58,9.20
2016,09,22,00,59,9.20
2016,09,22,01,00,9.20
2016,09,22,01,01,9.10
2016,09,22,01,02,9.10
2016,09,22,01,03,9.10
2016,09,22,01,04,9.10
2016,09,22,01,05,9.10
2016,09,22,01,06,9.10
2016,09,22,01,07,9.00
2016,09,22,01,08,9.00
2016,09,22,01,09,9.00
2016,09,22,01,10,9.00
2016,09,22,01,11,9.00
2016,09,22,01,12,9.00
2016,09,22,01,13,8.90
2016,09,22,01,14,8.90
2016,09,22,01,15,8.90
2016,09,22,01,16,8.90
2016,09,22,01,17,8.90
2016,09,22,01,18,8.90
2016,09,22,01,19,8.90
2016,09,22,01,20,8.90
2016,09,22,01,21,8.90
2016,09,22,01,22,8.90
2016,09,22,01,23,8.90
2016,09,22,01,24,8.90
2016,09,22,01,25,8.90
2016,09,22,01,26,8.90
2016,09,22,01,27,8.80
2016,09,22,01,28,8.80
2016,09,22,01,29,8.80
2016,09,22,01,30,8.80
2016,09,22,01,31,8.80
2016,09,22,01,32,8.80
2016,09,22,01,33,8.80
2016,09,22,01,34,8.80
2016,09,22,01,35,8.80
2016,09,22,01,36,8.80
2016,09,22,01,37,8.70
2016,09,22,01,38,8.70
2016,09,22,01,39,8.70
2016,09,22,01,40,8.70
2016,09,22,01,41,8.70
2016,09,22,01,42,8.70
2016,09,22,01,43,8.70
2016,09,22,01,44,8.70
2016,09,22,01,45,8.70
2016,09,22,01,46,8.70
2016,09,22,01,47,8.60
2016,09,22,01,48,8.60
2016,09,22,01,49,8.60
2016,09,22,01,50,8.60
2016,09,22,01,51,8.50
2016,09,22,01,52,8.50
2016,09,22,01,53,8.50
2016,09,22,01,54,8.50
2016,09,22,01,55,8.50
2016,09,22,01,56,8.50
2016,09,22,01,57,8.60
2016,09,22,01,58,8.60
2016,09,22,01,59,8.60
2016,09,22,02,00,8.60
2016,09,22,02,01,8.60
2016,09,22,02,02,8.50
2016,09,22,02,03,8.50
2016,09,22,02,04,8.50
2016,09,22,02,05,8.50
2016,09,22,02,06,8.50
2016,09,22,02,07,8.40
2016,09,22,02,08,8.40
2016,09,22,02,09,8.40
2016,09,22,02,10,8.30
2016,09,22,02,11,8.30
2016,09,22,02,12,8.30
2016,09,22,02,13,8.20
2016,09,22,02,14,8.20
2016,09,22,02,15,8.20
2016,09,22,02,16,8.20
2016,09,22,02,17,8.20
2016,09,22,02,18,8.20
2016,09,22,02,19,8.20
2016,09,22,02,20,8.20
2016,09,22,02,21,8.20
2016,09,22,02,22,8.20
2016,09,22,02,23,8.20
2016,09,22,02,24,8.20
2016,09,22,02,25,8.20
2016,09,22,02,26,8.20
2016,09,22,02,27,8.20
2016,09,22,02,28,8.20
2016,09,22,02,29,8.20
2016,09,22,02,30,8.20
2016,09,22,02,31,8.10
2016,09,22,02,32,8.10
2016,09,22,02,33,8.10
2016,09,22,02,34,8.10
2016,09,22,02,35,8.10
2016,09,22,02,36,8.10
2016,09,22,02,37,8.10
2016,09,22,02,38,8.10
2016,09,22,02,39,8.10
2016,09,22,02,40,8.10
2016,09,22,02,41,8.10
2016,09,22,02,42,8.10
2016,09,22,02,43,8.00
2016,09,22,02,44,8.00
2016,09,22,02,45,8.00
2016,09,22,02,46,7.90
2016,09,22,02,47,7.90
2016,09,22,02,48,7.90
2016,09,22,02,49,7.90
2016,09,22,02,50,7.90
2016,09,22,02,51,7.90
2016,09,22,02,52,7.90
2016,09,22,02,53,7.90
2016,09,22,02,54,7.90
2016,09,22,02,55,7.90
2016,09,22,02,56,7.90
2016,09,22,02,57,7.90
2016,09,22,02,58,7.90
2016,09,22,02,59,7.80
2016,09,22,03,00,7.80
2016,09,22,03,01,7.80
2016,09,22,03,02,7.80
2016,09,22,03,03,7.80
2016,09,22,03,04,7.80
2016,09,22,03,05,7.80
2016,09,22,03,06,7.70
2016,09,22,03,07,7.70
2016,09,22,03,08,7.60
2016,09,22,03,09,7.60
2016,09,22,03,10,7.60
2016,09,22,03,11,7.60
2016,09,22,03,12,7.60
2016,09,22,03,13,7.60
2016,09,22,03,14,7.70
2016,09,22,03,15,7.70
2016,09,22,03,16,7.70
2016,09,22,03,17,7.70
2016,09,22,03,18,7.70
2016,09,22,03,19,7.70
2016,09,22,03,20,7.70
2016,09,22,03,21,7.70
2016,09,22,03,22,7.60
2016,09,22,03,23,7.60
2016,09,22,03,24,7.60
2016,09,22,03,25,7.60
2016,09,22,03,26,7.60
2016,09,22,03,27,7.60
2016,09,22,03,28,7.60
2016,09,22,03,29,7.60
2016,09,22,03,30,7.60
2016,09,22,03,31,7.60
2016,09,22,03,32,7.60
2016,09,22,03,33,7.70
2016,09,22,03,34,7.60
2016,09,22,03,35,7.70
2016,09,22,03,36,7.70
2016,09,22,03,37,7.60
2016,09,22,03,38,7.60
2016,09,22,03,39,7.60
2016,09,22,03,40,7.60
2016,09,22,03,41,7.50
2016,09,22,03,42,7.50
2016,09,22,03,43,7.50
2016,09,22,03,44,7.50
2016,09,22,03,45,7.50
2016,09,22,03,46,7.50
2016,09,22,03,47,7.50
2016,09,22,03,48,7.50
2016,09,22,03,49,7.50
2016,09,22,03,50,7.50
2016,09,22,03,51,7.50
2016,09,22,03,52,7.40
2016,09,22,03,53,7.40
2016,09,22,03,54,7.40
2016,09,22,03,55,7.40
2016,09,22,03,56,7.40
2016,09,22,03,57,7.40
2016,09,22,03,58,7.40
2016,09,22,03,59,7.40
2016,09,22,04,00,7.40
2016,09,22,04,01,7.40
2016,09,22,04,02,7.40
2016,09,22,04,03,7.30
2016,09,22,04,04,7.30
2016,09,22,04,05,7.30
2016,09,22,04,06,7.30
2016,09,22,04,07,7.30
2016,09,22,04,08,7.40
2016,09,22,04,09,7.40
2016,09,22,04,10,7.40
2016,09,22,04,11,7.30
2016,09,22,04,12,7.30
2016,09,22,04,13,7.30
2016,09,22,04,14,7.30
2016,09,22,04,15,7.30
2016,09,22,04,16,7.30
2016,09,22,04,17,7.30
2016,09,22,04,18,7.30
2016,09,22,04,19,7.30
2016,09,22,04,20,7.30
2016,09,22,04,21,7.30
2016,09,22,04,22,7.30
2016,09,22,04,23,7.30
2016,09,22,04,24,7.30
2016,09,22,04,25,7.30
2016,09,22,04,26,7.30
2016,09,22,04,27,7.30
2016,09,22,04,28,7.30
2016,09,22,04,29,7.30
2016,09,22,04,30,7.20
2016,09,22,04,31,7.20
2016,09,22,04,32,7.20
2016,09,22,04,33,7.20
2016,09,22,04,34,7.10
2016,09,22,04,35,7.10
2016,09,22,04,36,7.10
2016,09,22,04,37,7.10
2016,09,22,04,38,7.10
2016,09,22,04,39,7.10
2016,09,22,04,40,7.10
2016,09,22,04,41,7.00
2016,09,22,04,42,7.00
2016,09,22,04,43,7.00
2016,09,22,04,44,7.10
2016,09,22,04,45,7.10
2016,09,22,04,46,7.10
2016,09,22,04,47,7.10
2016,09,22,04,48,7.00
2016,09,22,04,49,7.00
2016,09,22,04,50,7.10
2016,09,22,04,51,7.00
2016,09,22,04,52,7.00
2016,09,22,04,53,7.00
2016,09,22,04,54,7.00
2016,09,22,04,55,7.00
2016,09,22,04,56,7.00
2016,09,22,04,57,7.00
2016,09,22,04,58,7.00
2016,09,22,04,59,7.00
2016,09,22,05,00,7.00
2016,09,22,05,01,7.00
2016,09,22,05,02,7.00
2016,09,22,05,03,7.00
2016,09,22,05,04,7.10
2016,09,22,05,05,7.10
2016,09,22,05,06,7.10
2016,09,22,05,07,7.10
2016,09,22,05,08,7.00
2016,09,22,05,09,7.00
2016,09,22,05,10,7.00
2016,09,22,05,11,7.00
2016,09,22,05,12,7.00
2016,09,22,05,13,7.00
2016,09,22,05,14,7.00
2016,09,22,05,15,7.00
2016,09,22,05,16,7.00
2016,09,22,05,17,6.90
2016,09,22,05,18,6.90
2016,09,22,05,19,6.90
2016,09,22,05,20,7.00
2016,09,22,05,21,7.00
2016,09,22,05,22,7.00
2016,09,22,05,23,7.00
2016,09,22,05,24,7.00
2016,09,22,05,25,7.00
2016,09,22,05,26,7.00
2016,09,22,05,27,7.00
2016,09,22,05,28,7.00
2016,09,22,05,29,7.00
2016,09,22,05,30,7.00
2016,09,22,05,31,7.00
2016,09,22,05,32,7.00
2016,09,22,05,33,7.00
2016,09,22,05,34,7.00
2016,09,22,05,35,7.00
2016,09,22,05,36,7.00
2016,09,22,05,37,7.00
2016,09,22,05,38,7.00
2016,09,22,05,39,7.00
2016,09,22,05,40,7.00
2016,09,22,05,41,6.90
2016,09,22,05,42,6.90
2016,09,22,05,43,6.90
2016,09,22,05,44,6.90
2016,09,22,05,45,6.80
2016,09,22,05,46,6.80
2016,09,22,05,47,6.80
2016,09,22,05,48,6.80
2016,09,22,05,49,6.80
2016,09,22,05,50,6.80
2016,09,22,05,51,6.80
2016,09,22,05,52,6.80
2016,09,22,05,53,6.80
2016,09,22,05,54,6.80
2016,09,22,05,55,6.80
2016,09,22,05,56,6.80
2016,09,22,05,57,6.80
2016,09,22,05,58,6.70
2016,09,22,05,59,6.70
2016,09,22,06,00,6.70
2016,09,22,06,01,6.70
2016,09,22,06,02,6.60
2016,09,22,06,03,6.70
2016,09,22,06,04,6.70
2016,09,22,06,05,6.70
2016,09,22,06,06,6.70
2016,09,22,06,07,6.70
2016,09,22,06,08,6.70
2016,09,22,06,09,6.70
2016,09,22,06,10,6.70
2016,09,22,06,11,6.70
2016,09,22,06,12,6.80
2016,09,22,06,13,6.80
2016,09,22,06,14,6.80
2016,09,22,06,15,6.80
2016,09,22,06,16,6.80
2016,09,22,06,17,6.80
2016,09,22,06,18,6.70
2016,09,22,06,19,6.70
2016,09,22,06,20,6.70
2016,09,22,06,21,6.70
2016,09,22,06,22,6.60
2016,09,22,06,23,6.70
2016,09,22,06,24,6.70
2016,09,22,06,25,6.70
2016,09,22,06,26,6.70
2016,09,22,06,27,6.70
2016,09,22,06,28,6.70
2016,09,22,06,29,6.70
2016,09,22,06,30,6.70
2016,09,22,06,31,6.70
2016,09,22,06,32,6.70
2016,09,22,06,33,6.70
2016,09,22,06,34,6.70
2016,09,22,06,35,6.70
2016,09,22,06,36,6.70
2016,09,22,06,37,6.60
2016,09,22,06,38,6.60
2016,09,22,06,39,6.60
2016,09,22,06,40,6.60
2016,09,22,06,41,6.60
2016,09,22,06,42,6.60
2016,09,22,06,43,6.60
2016,09,22,06,44,6.60
2016,09,22,06,45,6.60
2016,09,22,06,46,6.60
2016,09,22,06,47,6.60
2016,09,22,06,48,6.60
2016,09,22,06,49,6.60
2016,09,22,06,50,6.60
2016,09,22,06,51,6.60
2016,09,22,06,52,6.70
2016,09,22,06,53,6.70
2016,09,22,06,54,6.60
2016,09,22,06,55,6.60
2016,09,22,06,56,6.60
2016,09,22,06,57,6.60
2016,09,22,06,58,6.60
2016,09,22,06,59,6.70
2016,09,22,07,00,6.70
2016,09,22,07,01,6.70
2016,09,22,07,02,6.70
2016,09,22,07,03,6.70
2016,09,22,07,04,6.70
2016,09,22,07,05,6.60
2016,09,22,07,06,6.60
2016,09,22,07,07,6.60
2016,09,22,07,08,6.60
2016,09,22,07,09,6.60
2016,09,22,07,10,6.60
2016,09,22,07,11,6.60
2016,09,22,07,12,6.60
2016,09,22,07,13,6.60
2016,09,22,07,14,6.60
2016,09,22,07,15,6.60
2016,09,22,07,16,6.60
2016,09,22,07,17,6.60
2016,09,22,07,18,6.60
2016,09,22,07,19,6.60
2016,09,22,07,20,6.60
2016,09,22,07,21,6.60
2016,09,22,07,22,6.60
2016,09,22,07,23,6.70
2016,09,22,07,24,6.70
2016,09,22,07,25,6.70
2016,09,22,07,26,6.70
2016,09,22,07,27,6.70
2016,09,22,07,28,6.70
2016,09,22,07,29,6.70
2016,09,22,07,30,6.60
2016,09,22,07,31,6.60
2016,09,22,07,32,6.60
2016,09,22,07,33,6.60
2016,09,22,07,34,6.60
2016,09,22,07,35,6.60
2016,09,22,07,36,6.60
2016,09,22,07,37,6.70
2016,09,22,07,38,6.70
2016,09,22,07,39,6.70
2016,09,22,07,40,6.70
2016,09,22,07,41,6.80
2016,09,22,07,42,6.80
2016,09,22,07,43,6.80
2016,09,22,07,44,6.90
2016,09,22,07,45,6.90
2016,09,22,07,46,7.00
2016,09,22,07,47,7.00
2016,09,22,07,48,7.00
2016,09,22,07,49,7.10
2016,09,22,07,50,7.20
2016,09,22,07,51,7.30
2016,09,22,07,52,7.40
2016,09,22,07,53,7.50
2016,09,22,07,54,7.50
2016,09,22,07,55,7.60
2016,09,22,07,56,7.60
2016,09,22,07,57,7.60
2016,09,22,07,58,7.70
2016,09,22,07,59,7.70
2016,09,22,08,00,7.80
2016,09,22,08,01,7.90
2016,09,22,08,02,7.90
2016,09,22,08,03,8.00
2016,09,22,08,04,8.10
2016,09,22,08,05,8.20
2016,09,22,08,06,8.30
2016,09,22,08,07,8.40
2016,09,22,08,08,8.50
2016,09,22,08,09,8.50
2016,09,22,08,10,8.70
2016,09,22,08,11,8.70
2016,09,22,08,12,8.90
2016,09,22,08,13,8.90
2016,09,22,08,14,9.00
2016,09,22,08,15,9.00
2016,09,22,08,16,9.10
2016,09,22,08,17,9.20
2016,09,22,08,18,9.20
2016,09,22,08,19,9.30
2016,09,22,08,20,9.40
2016,09,22,08,21,9.50
2016,09,22,08,22,9.50
2016,09,22,08,23,9.60
2016,09,22,08,24,9.70
2016,09,22,08,25,9.70
2016,09,22,08,26,9.80
2016,09,22,08,27,9.80
2016,09,22,08,28,9.90
2016,09,22,08,29,9.90
2016,09,22,08,30,10.00
2016,09,22,08,31,10.10
2016,09,22,08,32,10.10
2016,09,22,08,33,10.20
2016,09,22,08,34,10.30
2016,09,22,08,35,10.40
2016,09,22,08,36,10.40
2016,09,22,08,37,10.50
2016,09,22,08,38,10.60
2016,09,22,08,39,10.70
2016,09,22,08,40,10.80
2016,09,22,08,41,10.90
2016,09,22,08,42,11.10
2016,09,22,08,43,11.20
2016,09,22,08,44,11.40
2016,09,22,08,45,11.50
2016,09,22,08,46,11.70
2016,09,22,08,47,11.80
2016,09,22,08,48,12.00
2016,09,22,08,49,12.10
2016,09,22,08,50,12.30
2016,09,22,08,51,12.30
2016,09,22,08,52,12.40
2016,09,22,08,53,12.40
2016,09,22,08,54,12.50
2016,09,22,08,55,12.50
2016,09,22,08,56,12.50
2016,09,22,08,57,12.60
2016,09,22,08,58,12.60
2016,09,22,08,59,12.70
2016,09,22,09,00,12.70
2016,09,22,09,01,12.80
2016,09,22,09,02,12.80
2016,09,22,09,03,12.90
2016,09,22,09,04,13.00
2016,09,22,09,05,13.00
2016,09,22,09,06,13.10
2016,09,22,09,07,13.20
2016,09,22,09,08,13.30
2016,09,22,09,09,13.40
2016,09,22,09,10,13.50
2016,09,22,09,11,13.60
2016,09,22,09,12,13.60
2016,09,22,09,13,13.70
2016,09,22,09,14,13.70
2016,09,22,09,15,13.80
2016,09,22,09,16,13.80
2016,09,22,09,17,13.80
2016,09,22,09,18,13.90
2016,09,22,09,19,13.90
2016,09,22,09,20,13.90
2016,09,22,09,21,14.00
2016,09,22,09,22,14.10
2016,09,22,09,23,14.20
2016,09,22,09,24,14.20
2016,09,22,09,25,14.30
2016,09,22,09,26,14.40
2016,09,22,09,27,14.50
2016,09,22,09,28,14.50
2016,09,22,09,29,14.60
2016,09,22,09,30,14.60
2016,09,22,09,31,14.70
2016,09,22,09,32,14.70
2016,09,22,09,33,14.70
2016,09,22,09,34,14.70
2016,09,22,09,35,14.70
2016,09,22,09,36,14.70
2016,09,22,09,37,14.70
2016,09,22,09,38,14.70
2016,09,22,09,39,14.70
2016,09,22,09,40,14.70
2016,09,22,09,41,14.60
2016,09,22,09,42,14.60
2016,09,22,09,43,14.60
2016,09,22,09,44,14.50
2016,09,22,09,45,14.50
2016,09,22,09,46,14.50
2016,09,22,09,47,14.60
2016,09,22,09,48,14.60
2016,09,22,09,49,14.60
2016,09,22,09,50,14.60
2016,09,22,09,51,14.60
2016,09,22,09,52,14.60
2016,09,22,09,53,14.60
2016,09,22,09,54,14.60
2016,09,22,09,55,14.70
2016,09,22,09,56,14.70
2016,09,22,09,57,14.70
2016,09,22,09,58,14.80
2016,09,22,09,59,14.90
2016,09,22,10,00,15.00
2016,09,22,10,01,15.10
2016,09,22,10,02,15.20
2016,09,22,10,03,15.30
2016,09,22,10,04,15.30
2016,09,22,10,05,15.50
2016,09,22,10,06,15.50
2016,09,22,10,07,15.60
2016,09,22,10,08,15.70
2016,09,22,10,09,15.70
2016,09,22,10,10,15.70
2016,09,22,10,11,15.60
2016,09,22,10,12,15.60
2016,09,22,10,13,15.50
2016,09,22,10,14,15.50
2016,09,22,10,15,15.50
2016,09,22,10,16,15.50
2016,09,22,10,17,15.50
2016,09,22,10,18,15.60
2016,09,22,10,19,15.70
2016,09,22,10,20,15.80
2016,09,22,10,21,15.80
2016,09,22,10,22,15.80
2016,09,22,10,23,15.80
2016,09,22,10,24,15.90
2016,09,22,10,25,15.80
2016,09,22,10,26,15.80
2016,09,22,10,27,15.80
2016,09,22,10,28,15.80
2016,09,22,10,29,15.80
2016,09,22,10,30,15.80
2016,09,22,10,31,15.70
2016,09,22,10,32,15.70
2016,09,22,10,33,15.60
2016,09,22,10,34,15.60
2016,09,22,10,35,15.60
2016,09,22,10,36,15.60
2016,09,22,10,37,15.60
2016,09,22,10,38,15.60
2016,09,22,10,39,15.60
2016,09,22,10,40,15.60
2016,09,22,10,41,15.60
2016,09,22,10,42,15.70
2016,09,22,10,43,15.70
2016,09,22,10,44,15.80
2016,09,22,10,45,15.90
2016,09,22,10,46,16.00
2016,09,22,10,47,16.10
2016,09,22,10,48,16.10
2016,09,22,10,49,16.10
2016,09,22,10,50,16.00
2016,09,22,10,51,15.90
2016,09,22,10,52,15.90
2016,09,22,10,53,16.00
2016,09,22,10,54,16.10
2016,09,22,10,55,16.10
2016,09,22,10,56,16.20
2016,09,22,10,57,16.20
2016,09,22,10,58,16.20
2016,09,22,10,59,16.10
2016,09,22,11,00,16.10
2016,09,22,11,01,16.10
2016,09,22,11,02,16.20
2016,09,22,11,03,16.20
2016,09,22,11,04,16.20
2016,09,22,11,05,16.20
2016,09,22,11,06,16.20
2016,09,22,11,07,16.10
2016,09,22,11,08,16.10
2016,09,22,11,09,16.10
2016,09,22,11,10,16.00
2016,09,22,11,11,15.90
2016,09,22,11,12,15.90
2016,09,22,11,13,15.80
2016,09,22,11,14,15.70
2016,09,22,11,15,15.60
2016,09,22,11,16,15.60
2016,09,22,11,17,15.50
2016,09,22,11,18,15.50
2016,09,22,11,19,15.50
2016,09,22,11,20,15.50
2016,09,22,11,21,15.50
2016,09,22,11,22,15.50
2016,09,22,11,23,15.60
2016,09,22,11,24,15.60
2016,09,22,11,25,15.60
2016,09,22,11,26,15.60
2016,09,22,11,27,15.60
2016,09,22,11,28,15.70
2016,09,22,11,29,15.80
2016,09,22,11,30,15.80
2016,09,22,11,31,15.90
2016,09,22,11,32,16.00
2016,09,22,11,33,16.10
2016,09,22,11,34,16.10
2016,09,22,11,35,16.10
2016,09,22,11,36,16.10
2016,09,22,11,37,16.10
2016,09,22,11,38,16.20
2016,09,22,11,39,16.20
2016,09,22,11,40,16.20
2016,09,22,11,41,16.20
2016,09,22,11,42,16.20
2016,09,22,11,43,16.10
2016,09,22,11,44,16.20
2016,09,22,11,45,16.20
2016,09,22,11,46,16.30
2016,09,22,11,47,16.30
2016,09,22,11,48,16.40
2016,09,22,11,49,16.40
2016,09,22,11,50,16.50
2016,09,22,11,51,16.60
2016,09,22,11,52,16.60
2016,09,22,11,53,16.60
2016,09,22,11,54,16.70
2016,09,22,11,55,16.70
2016,09,22,11,56,16.70
2016,09,22,11,57,16.70
2016,09,22,11,58,16.80
2016,09,22,11,59,16.90
2016,09,22,12,00,17.00
2016,09,22,12,01,17.00
2016,09,22,12,02,17.00
2016,09,22,12,03,17.10
2016,09,22,12,04,17.20
2016,09,22,12,05,17.30
2016,09,22,12,06,17.30
2016,09,22,12,07,17.30
2016,09,22,12,08,17.30
2016,09,22,12,09,17.30
2016,09,22,12,10,17.30
2016,09,22,12,11,17.40
2016,09,22,12,12,17.40
2016,09,22,12,13,17.40
2016,09,22,12,14,17.30
2016,09,22,12,15,17.20
2016,09,22,12,16,17.20
2016,09,22,12,17,17.10
2016,09,22,12,18,17.10
2016,09,22,12,19,17.20
2016,09,22,12,20,17.20
2016,09,22,12,21,17.30
2016,09,22,12,22,17.30
2016,09,22,12,23,17.30
2016,09,22,12,24,17.30
2016,09,22,12,25,17.30
2016,09,22,12,26,17.40
2016,09,22,12,27,17.40
2016,09,22,12,28,17.30
2016,09,22,12,29,17.30
2016,09,22,12,30,17.30
2016,09,22,12,31,17.30
2016,09,22,12,32,17.30
2016,09,22,12,33,17.30
2016,09,22,12,34,17.40
2016,09,22,12,35,17.50
2016,09,22,12,36,17.60
2016,09,22,12,37,17.70
2016,09,22,12,38,17.60
2016,09,22,12,39,17.40
2016,09,22,12,40,17.30
2016,09,22,12,41,17.30
2016,09,22,12,42,17.50
2016,09,22,12,43,17.50
2016,09,22,12,44,17.50
2016,09,22,12,45,17.50
2016,09,22,12,46,17.60
2016,09,22,12,47,17.50
2016,09,22,12,48,17.40
2016,09,22,12,49,17.40
2016,09,22,12,50,17.30
2016,09,22,12,51,17.30
2016,09,22,12,52,17.30
2016,09,22,12,53,17.30
2016,09,22,12,54,17.30
2016,09,22,12,55,17.30
2016,09,22,12,56,17.30
2016,09,22,12,57,17.30
2016,09,22,12,58,17.30
2016,09,22,12,59,17.30
2016,09,22,13,00,17.30
2016,09,22,13,01,17.30
2016,09,22,13,02,17.30
2016,09,22,13,03,17.30
2016,09,22,13,04,17.30
2016,09,22,13,05,17.30
2016,09,22,13,06,17.20
2016,09,22,13,07,17.10
2016,09,22,13,08,17.00
2016,09,22,13,09,16.90
2016,09,22,13,10,16.90
2016,09,22,13,11,16.80
2016,09,22,13,12,16.70
2016,09,22,13,13,16.80
2016,09,22,13,14,16.80
2016,09,22,13,15,16.80
2016,09,22,13,16,16.70
2016,09,22,13,17,16.70
2016,09,22,13,18,16.70
2016,09,22,13,19,16.80
2016,09,22,13,20,16.70
2016,09,22,13,21,16.80
2016,09,22,13,22,16.80
2016,09,22,13,23,16.70
2016,09,22,13,24,16.80
2016,09,22,13,25,16.80
2016,09,22,13,26,16.90
2016,09,22,13,27,17.00
2016,09,22,13,28,17.10
2016,09,22,13,29,17.00
2016,09,22,13,30,16.90
2016,09,22,13,31,16.90
2016,09,22,13,32,17.00
2016,09,22,13,33,17.20
2016,09,22,13,34,17.10
2016,09,22,13,35,16.90
2016,09,22,13,36,16.90
2016,09,22,13,37,16.90
2016,09,22,13,38,16.80
2016,09,22,13,39,16.70
2016,09,22,13,40,16.60
2016,09,22,13,41,16.70
2016,09,22,13,42,16.80
2016,09,22,13,43,16.90
2016,09,22,13,44,17.00
2016,09,22,13,45,17.10
2016,09,22,13,46,17.00
2016,09,22,13,47,16.90
2016,09,22,13,48,16.80
2016,09,22,13,49,16.70
2016,09,22,13,50,16.80
2016,09,22,13,51,16.90
2016,09,22,13,52,16.90
2016,09,22,13,53,16.90
2016,09,22,13,54,16.80
2016,09,22,13,55,16.80
2016,09,22,13,56,16.90
2016,09,22,13,57,16.90
2016,09,22,13,58,16.90
2016,09,22,13,59,16.90
2016,09,22,14,00,16.90
2016,09,22,14,01,16.80
2016,09,22,14,02,16.70
2016,09,22,14,03,16.70
2016,09,22,14,04,16.50
2016,09,22,14,05,16.40
2016,09,22,14,06,16.40
2016,09,22,14,07,16.50
2016,09,22,14,08,16.60
2016,09,22,14,09,16.70
2016,09,22,14,10,16.70
2016,09,22,14,11,16.70
2016,09,22,14,12,16.80
2016,09,22,14,13,16.80
2016,09,22,14,14,16.80
2016,09,22,14,15,16.80
2016,09,22,14,16,16.80
2016,09,22,14,17,16.80
2016,09,22,14,18,16.80
2016,09,22,14,19,16.70
2016,09,22,14,20,16.80
2016,09,22,14,21,16.80
2016,09,22,14,22,16.80
2016,09,22,14,23,16.80
2016,09,22,14,24,16.70
2016,09,22,14,25,16.80
2016,09,22,14,26,16.90
2016,09,22,14,27,16.90
2016,09,22,14,28,17.00
2016,09,22,14,29,17.00
2016,09,22,14,30,17.10
2016,09,22,14,31,17.20
2016,09,22,14,32,17.30
2016,09,22,14,33,17.40
2016,09,22,14,34,17.50
2016,09,22,14,35,17.50
2016,09,22,14,36,17.40
2016,09,22,14,37,17.40
2016,09,22,14,38,17.30
2016,09,22,14,39,17.30
2016,09,22,14,40,17.30
2016,09,22,14,41,17.20
2016,09,22,14,42,17.20
2016,09,22,14,43,17.20
2016,09,22,14,44,17.20
2016,09,22,14,45,17.30
2016,09,22,14,46,17.30
2016,09,22,14,47,17.20
2016,09,22,14,48,17.20
2016,09,22,14,49,17.20
2016,09,22,14,50,17.30
2016,09,22,14,51,17.30
2016,09,22,14,52,17.30
2016,09,22,14,53,17.30
2016,09,22,14,54,17.30
2016,09,22,14,55,17.30
2016,09,22,14,56,17.30
2016,09,22,14,57,17.40
2016,09,22,14,58,17.40
2016,09,22,14,59,17.50
2016,09,22,15,00,17.60
2016,09,22,15,01,17.70
2016,09,22,15,02,17.80
2016,09,22,15,03,17.80
2016,09,22,15,04,17.80
2016,09,22,15,05,17.70
2016,09,22,15,06,17.70
2016,09,22,15,07,17.70
2016,09,22,15,08,17.70
2016,09,22,15,09,17.70
2016,09,22,15,10,17.70
2016,09,22,15,11,17.70
2016,09,22,15,12,17.80
2016,09,22,15,13,17.70
2016,09,22,15,14,17.70
2016,09,22,15,15,17.70
2016,09,22,15,16,17.60
2016,09,22,15,17,17.60
2016,09,22,15,18,17.60
2016,09,22,15,19,17.60
2016,09,22,15,20,17.60
2016,09,22,15,21,17.60
2016,09,22,15,22,17.60
2016,09,22,15,23,17.70
2016,09,22,15,24,17.80
2016,09,22,15,25,17.90
2016,09,22,15,26,17.90
2016,09,22,15,27,18.00
2016,09,22,15,28,18.10
2016,09,22,15,29,18.10
2016,09,22,15,30,18.00
2016,09,22,15,31,17.90
2016,09,22,15,32,17.80
2016,09,22,15,33,17.70
2016,09,22,15,34,17.60
2016,09,22,15,35,17.50
2016,09,22,15,36,17.40
2016,09,22,15,37,17.40
2016,09,22,15,38,17.50
2016,09,22,15,39,17.60
2016,09,22,15,40,17.70
2016,09,22,15,41,17.80
2016,09,22,15,42,17.70
2016,09,22,15,43,17.60
2016,09,22,15,44,17.50
2016,09,22,15,45,17.40
2016,09,22,15,46,17.40
2016,09,22,15,47,17.40
2016,09,22,15,48,17.30
2016,09,22,15,49,17.20
2016,09,22,15,50,17.20
2016,09,22,15,51,17.20
2016,09,22,15,52,17.10
2016,09,22,15,53,17.10
2016,09,22,15,54,17.10
2016,09,22,15,55,17.10
2016,09,22,15,56,17.00
2016,09,22,15,57,17.00
2016,09,22,15,58,16.90
2016,09,22,15,59,16.80
2016,09,22,16,00,16.70
2016,09,22,16,01,16.70
2016,09,22,16,02,16.70
2016,09,22,16,03,16.60
2016,09,22,16,04,16.50
2016,09,22,16,05,16.40
2016,09,22,16,06,16.40
2016,09,22,16,07,16.40
2016,09,22,16,08,16.40
2016,09,22,16,09,16.40
2016,09,22,16,10,16.40
2016,09,22,16,11,16.60
2016,09,22,16,12,16.60
2016,09,22,16,13,16.60
2016,09,22,16,14,16.70
2016,09,22,16,15,16.80
2016,09,22,16,16,16.90
2016,09,22,16,17,16.90
2016,09,22,16,18,17.00
2016,09,22,16,19,17.00
2016,09,22,16,20,17.10
2016,09,22,16,21,17.30
2016,09,22,16,22,17.40
2016,09,22,16,23,17.60
2016,09,22,16,24,17.80
2016,09,22,16,25,18.00
2016,09,22,16,26,18.10
2016,09,22,16,27,18.20
2016,09,22,16,28,18.30
2016,09,22,16,29,18.40
2016,09,22,16,30,18.40
2016,09,22,16,31,18.50
2016,09,22,16,32,18.50
2016,09,22,16,33,18.60
2016,09,22,16,34,18.60
2016,09,22,16,35,18.60
2016,09,22,16,36,18.50
2016,09,22,16,37,18.50
2016,09,22,16,38,18.50
2016,09,22,16,39,18.50
2016,09,22,16,40,18.50
2016,09,22,16,41,18.60
2016,09,22,16,42,18.70
2016,09,22,16,43,18.60
2016,09,22,16,44,18.60
2016,09,22,16,45,18.60
2016,09,22,16,46,18.70
2016,09,22,16,47,18.80
2016,09,22,16,48,18.80
2016,09,22,16,49,18.70
2016,09,22,16,50,18.60
2016,09,22,16,51,18.60
2016,09,22,16,52,18.50
2016,09,22,16,53,18.40
2016,09,22,16,54,18.40
2016,09,22,16,55,18.40
2016,09,22,16,56,18.30
2016,09,22,16,57,18.40
2016,09,22,16,58,18.40
2016,09,22,16,59,18.10
2016,09,22,17,00,17.80
2016,09,22,17,01,17.60
2016,09,22,17,02,17.40
2016,09,22,17,03,17.10
2016,09,22,17,04,16.90
2016,09,22,17,05,16.70
2016,09,22,17,06,16.50
2016,09,22,17,07,16.30
2016,09,22,17,08,16.20
2016,09,22,17,09,16.20
2016,09,22,17,10,16.10
2016,09,22,17,11,16.10
2016,09,22,17,12,16.10
2016,09,22,17,13,16.10
2016,09,22,17,14,16.00
2016,09,22,17,15,15.90
2016,09,22,17,16,15.80
2016,09,22,17,17,15.80
2016,09,22,17,18,15.80
2016,09,22,17,19,15.80
2016,09,22,17,20,15.80
2016,09,22,17,21,15.90
2016,09,22,17,22,16.00
2016,09,22,17,23,16.10
2016,09,22,17,24,16.10
2016,09,22,17,25,16.00
2016,09,22,17,26,15.90
2016,09,22,17,27,15.90
2016,09,22,17,28,16.00
2016,09,22,17,29,16.10
2016,09,22,17,30,16.10
2016,09,22,17,31,16.10
2016,09,22,17,32,16.20
2016,09,22,17,33,16.30
2016,09,22,17,34,16.30
2016,09,22,17,35,16.40
2016,09,22,17,36,16.40
2016,09,22,17,37,16.50
2016,09,22,17,38,16.60
2016,09,22,17,39,16.60
2016,09,22,17,40,16.70
2016,09,22,17,41,16.70